This demonstration page uses our WeatherBlox Daily Observations layout. Learn more.

Left ArrowRight Arrow

Hourly Observations for December 5, 2022

Temp ( °F °C ) Dew Point ( °F °C ) Humidity (%) Winds ( mph kmh ) Pressure ( in mb ) Visibility ( mi km ) Precip ( " mm )
12:15 am 00:15 Clear 32 0.1 14 -10 46 46 SSW 10 17 29.87 1012 10 16 0.00 0.00
12:35 am 00:35 Clear 32 0.1 14 -9.8 47 47 SSW 8 13 29.86 1011 10 16 0.00 0.00
12:55 am 00:55 Clear 31 -0.4 14 -10 48 48 SSW 6 9 29.87 1011 10 16 0.00 0.00
1:15 am 01:15 Clear 29 -1.6 14 -9.9 53 53 S 9 15 29.86 1011 10 16 0.00 0.00
1:35 am 01:35 Clear 33 0.4 15 -9.3 48 48 SW 10 17 29.83 1010 10 16 0.00 0.00
1:55 am 01:55 Clear 32 0.1 15 -9.3 49 49 SW 10 17 29.83 1010 10 16 0.00 0.00
2:15 am 02:15 Clear 34 1.2 17 -8.6 48 48 SW 12 19 29.81 1010 10 16 0.00 0.00
2:35 am 02:35 Clear 35 1.7 17 -8.3 47 47 SW 10 17 29.80 1009 10 16 0.00 0.00
2:55 am 02:55 Clear 35 1.8 17 -8.3 47 47 SW 8 13 29.81 1009 10 16 0.00 0.00
3:15 am 03:15 Clear 35 1.4 17 -8.5 48 48 WSW 7 11 29.82 1010 10 16 0.00 0.00
3:35 am 03:35 Clear 33 0.6 17 -8.5 50 50 SW 7 11 29.82 1010 10 16 0.00 0.00
3:55 am 03:55 Clear 31 -0.5 16 -9 53 53 W 3 6 29.84 1010 10 16 0.00 0.00
4:15 am 04:15 Clear 29 -1.7 16 -8.9 58 58 Calm 29.84 1011 10 16 0.00 0.00
4:35 am 04:35 Clear 28 -2.5 16 -9 61 61 Calm 29.84 1010 10 16 0.00 0.00
4:55 am 04:55 Clear 27 -3 15 -9.3 62 62 N 8 13 29.83 1010 10 16 0.00 0.00
5:15 am 05:15 Clear 30 -1.3 17 -8.5 58 58 Calm 29.82 1010 10 16 0.00 0.00
5:35 am 05:35 Clear 25 -3.7 15 -9.5 64 64 N 3 6 29.83 1010 10 16 0.00 0.00
5:50 am 05:50 Clear 30 -1.3 15 -9.2 55 55 SW 3 6 29.83 1010 10 16 0.00 0.00
6:15 am 06:15 Clear 30 -0.9 16 -9 54 54 Calm 29.81 1010 10 16 0.00 0.00
6:35 am 06:35 Clear 30 -1 16 -9 54 54 NNW 5 7 29.83 1010 10 16 0.00 0.00
6:55 am 06:55 Clear 29 -1.7 17 -8.2 61 61 N 9 15 29.85 1011 10 16 0.00 0.00
7:15 am 07:15 Clear 28 -2.1 18 -8 64 64 N 8 13 29.88 1012 10 16 0.00 0.00
7:35 am 07:35 Clear 28 -2 19 -7.3 67 67 N 8 13 29.87 1012 10 16 0.00 0.00
7:55 am 07:55 Sunny 30 -1 20 -6.5 66 66 N 10 17 29.86 1011 10 16 0.00 0.00
8:15 am 08:15 Sunny 31 -0.7 20 -6.6 64 64 N 14 22 29.87 1012 10 16 0.00 0.00
8:35 am 08:35 Sunny 32 -0.1 20 -6.5 62 62 NNE 14 22 29.86 1011 10 16 0.00 0.00
8:55 am 08:55 Sunny 32 0.1 20 -6.5 61 61 NNE 17 28 29.87 1012 10 16 0.00 0.00
9:15 am 09:15 Sunny 32 0.2 20 -6.6 60 60 N 14 22 29.88 1012 10 16 0.00 0.00
9:35 am 09:35 Sunny 34 0.9 20 -6.5 58 58 NNE 16 26 29.89 1012 10 16 0.00 0.00
9:55 am 09:55 Sunny 35 1.5 20 -6.5 55 55 NNE 14 22 29.89 1012 10 16 0.00 0.00
10:15 am 10:15 Sunny 35 1.8 20 -6.6 54 54 NNE 20 31 29.90 1012 10 16 0.00 0.00
10:35 am 10:35 Partly Cloudy 37 2.8 21 -6.3 51 51 NNE 16 26 29.89 1012 10 16 0.00 0.00
10:55 am 10:55 Sunny 38 3.1 20 -6.5 49 49 N 15 24 29.89 1012 10 16 0.00 0.00
11:15 am 11:15 Sunny 38 3.4 20 -6.6 48 48 N 16 26 29.89 1012 10 16 0.00 0.00
11:35 am 11:35 Sunny 38 3.4 20 -6.6 48 48 N 18 30 29.88 1012 10 16 0.00 0.00
11:55 am 11:55 Sunny 40 4.2 20 -6.4 46 46 N 16 26 29.88 1012 10 16 0.00 0.00
12:15 pm 12:15 Sunny 38 3.5 20 -6.6 47 47 NNE 16 26 29.88 1012 10 16 0.00 0.00
12:35 pm 12:35 Sunny 37 3 20 -6.5 50 50 N 17 28 29.89 1012 10 16 0.00 0.00
12:55 pm 12:55 Sunny 37 3 20 -6.5 50 50 N 16 26 29.89 1012 10 16 0.00 0.00
1:15 pm 13:15 Sunny 38 3.3 20 -6.4 49 49 N 16 26 29.88 1012 10 16 0.00 0.00
1:35 pm 13:35 Sunny 39 3.9 20 -6.5 47 47 N 17 28 29.88 1012 10 16 0.00 0.00
1:55 pm 13:55 Sunny 39 3.9 20 -6.6 46 46 N 15 24 29.87 1011 10 16 0.00 0.00
2:15 pm 14:15 Sunny 38 3.6 20 -6.4 48 48 N 17 28 29.86 1011 10 16 0.00 0.00
2:35 pm 14:35 Partly Cloudy 38 3.2 20 -6.6 48 48 N 15 24 29.88 1012 10 16 0.00 0.00
2:55 pm 14:55 Partly Cloudy 37 3 20 -6.5 50 50 NNE 14 22 29.88 1012 10 16 0.00 0.00
3:15 pm 15:15 Sunny 38 3.1 20 -6.5 49 49 NNE 17 28 29.89 1012 10 16 0.00 0.00
3:35 pm 15:35 Sunny 37 2.5 20 -6.6 51 51 NNE 16 26 29.93 1014 10 16 0.00 0.00
3:55 pm 15:55 Partly Cloudy 35 1.5 20 -6.7 54 54 NNE 16 26 29.94 1014 10 16 0.00 0.00
4:15 pm 16:15 Partly Cloudy 34 1.1 19 -7 55 55 NNE 18 30 29.95 1014 10 16 0.00 0.00
4:35 pm 16:35 Sunny 32 0 19 -7.3 58 58 NNE 13 20 29.96 1015 10 16 0.00 0.00
4:55 pm 16:55 Partly Cloudy 31 -0.5 19 -7.3 60 60 NNE 13 20 29.97 1015 10 16 0.00 0.00
5:15 pm 17:15 Mostly Cloudy 31 -0.7 19 -7.3 61 61 NNE 14 22 29.97 1015 10 16 0.00 0.00
5:35 pm 17:35 Partly Cloudy 31 -0.7 19 -7.5 60 60 NNE 13 20 29.99 1016 10 16 0.00 0.00
5:55 pm 17:55 Partly Cloudy 30 -0.9 19 -7.5 61 61 NNE 10 17 29.99 1016 10 16 0.00 0.00
6:15 pm 18:15 Partly Cloudy 30 -1 18 -8 59 59 NNE 13 20 29.99 1016 10 16 0.00 0.00
6:35 pm 18:35 Partly Cloudy 30 -1 17 -8.1 58 58 NNE 9 15 30.00 1016 10 16 0.00 0.00
6:55 pm 18:55 Partly Cloudy 29 -1.5 18 -8 61 61 NNE 12 19 30.01 1016 10 16 0.00 0.00
7:15 pm 19:15 Clear 28 -2 17 -8.3 62 62 NNE 10 17 30.03 1017 10 16 0.00 0.00
7:35 pm 19:35 Clear 27 -2.6 17 -8.4 64 64 NNE 8 13 30.04 1017 10 16 0.00 0.00
7:55 pm 19:55 Clear 27 -2.9 17 -8.5 65 65 NNE 8 13 30.03 1017 10 16 0.00 0.00
8:15 pm 20:15 Partly Cloudy 25 -3.9 16 -8.8 69 69 NNE 8 13 30.05 1018 10 16 0.00 0.00
8:35 pm 20:35 Partly Cloudy 26 -3.5 17 -8.6 68 68 NNE 7 11 30.06 1018 10 16 0.00 0.00
8:55 pm 20:55 Partly Cloudy 26 -3.5 16 -8.7 67 67 NNE 6 9 30.06 1018 10 16 0.00 0.00
9:15 pm 21:15 Mostly Cloudy 26 -3.6 16 -9 66 66 NE 5 7 30.06 1018 10 16 0.00 0.00
9:35 pm 21:35 Partly Cloudy 26 -3.5 16 -9.1 65 65 ENE 6 9 30.05 1018 10 16 0.00 0.00
9:55 pm 21:55 Partly Cloudy 26 -3.5 15 -9.2 65 65 ENE 6 9 30.04 1017 10 16 0.00 0.00
10:15 pm 22:15 Partly Cloudy 26 -3.3 16 -9 65 65 NE 6 9 30.05 1018 10 16 0.00 0.00
10:35 pm 22:35 Partly Cloudy 26 -3.6 15 -9.2 65 65 ENE 6 9 30.04 1017 10 16 0.00 0.00
10:55 pm 22:55 Mostly Cloudy 26 -3.5 16 -9 66 66 NE 5 7 30.04 1017 10 16 0.00 0.00
11:15 pm 23:15 Cloudy 26 -3.5 16 -9 66 66 NE 5 7 30.04 1017 10 16 0.00 0.00
11:35 pm 23:35 Cloudy 26 -3.5 16 -9 66 66 NE 5 7 30.05 1018 10 16 0.00 0.00
11:55 pm 23:55 Partly Cloudy 26 -3.6 16 -9 66 66 NNE 3 6 30.06 1018 10 16 0.00 0.00

Powered by AerisWeather